Weather History for Inverness, FL

Change the Weather History Date:

Sunday, August 5, 2012

  Actual Average (KOCF) Record (KOCF)
Temperature  
Mean Temperature 82 °F -  
Max Temperature 91 °F 88 °F 96 °F (2011)
Min Temperature 73 °F 70 °F 69 °F (2002)
Cooling Degree Days 17    
Growing Degree Days 32 (Base 50)    
Moisture  
Dew Point 73 °F    
Average Humidity 84    
Maximum Humidity 100    
Minimum Humidity 55    
Precipitation  
Precipitation 0.09 in - - ()
Sea Level Pressure  
Sea Level Pressure 30.07 in    
Wind  
Wind Speed 2 mph ()    
Max Wind Speed 9 mph    
Max Gust Speed -    
Averages and records for this station are not official NWS values.
T = Trace of Precipitation, MM = Missing Value Source: Averaged Metar Reports

Daily Weather History Graph

Daily Weather History Graph

Search for Another Location

Airport:

Trip Planner

Search our weather history database for the weather conditions in past years. The results will help you decide how hot, cold, wet, or windy it might be!

Date:

Astronomy

Aug. 05, 2012 Rise Set
Actual Time 6:52 AM EDT 8:17 PM EDT
Civil Twilight 6:27 AM EDT 8:42 PM EDT
Nautical Twilight 5:57 AM EDT 9:12 PM EDT
Astronomical Twilight 5:25 AM EDT 9:43 PM EDT
Moon 10:21 PM EDT (8/5) 10:16 AM EDT (8/5)
Length of Visible Light 14h 14m
Length of Day
13h 24m
Waning Gibbous, 86% of the Moon is Illuminated
Aug 5
Waning Gibbous
Aug 9
Last Quarter
Aug 17
New
Aug 24
First Quarter
Aug 31
Full

Hourly Weather History & Observations

Time (EDT) Temp. Heat Index Dew Point Humidity Pressure Visibility Wind Dir Wind Speed Gust Speed Precip Events Conditions
12:35 AM 77.0 °F - 73.4 °F 89% 30.06 in - Calm Calm - N/A   Unknown
12:55 AM 77.0 °F - 73.4 °F 89% 30.06 in - Calm Calm - N/A   Unknown
1:15 AM 75.2 °F - 73.4 °F 94% 30.06 in - Calm Calm - N/A   Unknown
1:35 AM 75.2 °F - 73.4 °F 94% 30.05 in - Calm Calm - N/A   Unknown
1:55 AM 75.2 °F - 73.4 °F 94% 30.04 in - Calm Calm - N/A   Unknown
2:15 AM 75.2 °F - 73.4 °F 94% 30.04 in - Calm Calm - N/A   Unknown
2:35 AM 73.4 °F - 73.4 °F 100% 30.03 in - Calm Calm - N/A   Unknown
2:55 AM 73.4 °F - 73.4 °F 100% 30.03 in - Calm Calm - N/A   Unknown
3:15 AM 73.4 °F - 73.4 °F 100% 30.03 in - Calm Calm - N/A   Unknown
3:35 AM 73.4 °F - 73.4 °F 100% 30.02 in - Calm Calm - N/A   Unknown
3:55 AM 73.4 °F - 73.4 °F 100% 30.02 in - Calm Calm - N/A   Unknown
4:15 AM 73.4 °F - 73.4 °F 100% 30.02 in - Calm Calm - N/A   Unknown
4:35 AM 73.4 °F - 73.4 °F 100% 30.03 in - Calm Calm - N/A   Unknown
4:55 AM 73.4 °F - 73.4 °F 100% 30.03 in - Calm Calm - N/A   Mostly Cloudy
5:15 AM 75.2 °F - 73.4 °F 94% 30.03 in - Calm Calm - N/A   Unknown
5:35 AM 73.4 °F - 73.4 °F 100% 30.03 in - Calm Calm - N/A   Mostly Cloudy
5:55 AM 75.2 °F - 73.4 °F 94% 30.03 in - South 3.5 mph - N/A   Unknown
6:15 AM 75.2 °F - 73.4 °F 94% 30.04 in - Calm Calm - N/A   Unknown
6:35 AM 75.2 °F - 73.4 °F 94% 30.05 in - Calm Calm - N/A   Unknown
6:55 AM 75.2 °F - 73.4 °F 94% 30.06 in - Calm Calm - N/A   Unknown
7:15 AM 75.2 °F - 73.4 °F 94% 30.07 in - Calm Calm - N/A   Unknown
7:35 AM 75.2 °F - 73.4 °F 94% 30.07 in - Calm Calm - N/A   Unknown
7:55 AM 75.2 °F - 73.4 °F 94% 30.08 in - SE 3.5 mph - N/A   Unknown
8:15 AM 77.0 °F - 73.4 °F 89% 30.09 in - SE 4.6 mph - N/A   Unknown
8:35 AM 77.0 °F - 73.4 °F 89% 30.09 in - SSE 3.5 mph - N/A   Unknown
8:55 AM 78.8 °F - 73.4 °F 83% 30.10 in - SSE 9.2 mph - N/A   Unknown
9:15 AM 80.6 °F 85.4 °F 73.4 °F 79% 30.10 in - South 9.2 mph - N/A   Overcast
9:35 AM 80.6 °F 85.4 °F 73.4 °F 79% 30.10 in - South 9.2 mph - N/A   Scattered Clouds
9:55 AM 82.4 °F 88.2 °F 73.4 °F 74% 30.11 in - South 8.1 mph - N/A   Clear
10:15 AM 84.2 °F 90.9 °F 73.4 °F 70% 30.11 in - SSE 5.8 mph - N/A   Clear
10:35 AM 84.2 °F 90.9 °F 73.4 °F 70% 30.11 in - South 6.9 mph - N/A   Clear
10:55 AM 86.0 °F 93.4 °F 73.4 °F 66% 30.11 in - ESE 6.9 mph - N/A   Clear
11:15 AM 87.8 °F 95.6 °F 73.4 °F 62% 30.11 in - SE 5.8 mph - N/A   Scattered Clouds
11:35 AM 87.8 °F 97.6 °F 75.2 °F 66% 30.11 in - SSE 5.8 mph - N/A   Scattered Clouds
11:55 AM 87.8 °F 95.6 °F 73.4 °F 62% 30.11 in - SSE 6.9 mph - N/A   Scattered Clouds
12:15 PM 89.6 °F 99.8 °F 75.2 °F 62% 30.11 in - South 6.9 mph - N/A   Scattered Clouds
12:35 PM 89.6 °F 98.2 °F 73.4 °F 59% 30.11 in - South 4.6 mph - N/A   Scattered Clouds
12:55 PM 89.6 °F 98.2 °F 73.4 °F 59% 30.10 in - SE 3.5 mph - N/A   Mostly Cloudy
1:15 PM 89.6 °F 98.2 °F 73.4 °F 59% 30.10 in - South 6.9 mph - N/A   Scattered Clouds
1:35 PM 91.4 °F 100.1 °F 73.4 °F 55% 30.09 in - SSE 3.5 mph - N/A   Scattered Clouds
1:55 PM 91.4 °F 100.1 °F 73.4 °F 55% 30.08 in - ESE 4.6 mph - N/A   Scattered Clouds
2:15 PM 91.4 °F 100.1 °F 73.4 °F 55% 30.07 in - SE 6.9 mph - N/A   Scattered Clouds
2:35 PM 91.4 °F 100.1 °F 73.4 °F 55% 30.06 in - SSE 5.8 mph - N/A Thunderstorm Thunderstorm
2:55 PM 89.6 °F 96.2 °F 71.6 °F 55% 30.07 in - South 8.1 mph - N/A   Mostly Cloudy
3:15 PM 82.4 °F 87.2 °F 71.6 °F 70% 30.08 in - North 8.1 mph - N/A Thunderstorm Thunderstorm
3:35 PM 78.8 °F - 68.0 °F 69% 30.08 in - Calm Calm - N/A Thunderstorm Thunderstorm
3:55 PM 75.2 °F - 71.6 °F 89% 30.09 in - Calm Calm - 0.09 in Thunderstorm Thunderstorm
4:15 PM 77.0 °F - 73.4 °F 89% 30.08 in - Calm Calm - N/A   Unknown
4:35 PM 77.0 °F - 75.2 °F 94% 30.08 in - Calm Calm - N/A   Unknown
4:55 PM 78.8 °F - 75.2 °F 89% 30.07 in - SSW 3.5 mph - N/A Thunderstorm Thunderstorm
5:15 PM 78.8 °F - 73.4 °F 83% 30.08 in - ESE 8.1 mph - N/A   Unknown
5:35 PM 78.8 °F - 75.2 °F 89% 30.07 in - South 3.5 mph - N/A   Unknown
5:55 PM 78.8 °F - 73.4 °F 83% 30.07 in - South 5.8 mph - N/A   Mostly Cloudy
6:15 PM 78.8 °F - 73.4 °F 83% 30.07 in - Calm Calm - N/A   Unknown
6:35 PM 78.8 °F - 73.4 °F 83% 30.06 in - SE 3.5 mph - N/A   Clear
6:55 PM 78.8 °F - 73.4 °F 83% 30.07 in - Calm Calm - N/A   Unknown
7:15 PM 78.8 °F - 73.4 °F 83% 30.07 in - Calm Calm - N/A   Unknown
7:35 PM 77.0 °F - 73.4 °F 89% 30.08 in - Calm Calm - N/A   Unknown
7:55 PM 77.0 °F - 73.4 °F 89% 30.07 in - Calm Calm - N/A   Unknown
8:15 PM 77.0 °F - 73.4 °F 89% 30.07 in - Calm Calm - N/A   Unknown
8:35 PM 77.0 °F - 73.4 °F 89% 30.07 in - Calm Calm - N/A   Unknown
8:55 PM 77.0 °F - 73.4 °F 89% 30.07 in - Calm Calm - N/A   Unknown
9:15 PM 77.0 °F - 73.4 °F 89% 30.08 in - Calm Calm - N/A   Unknown
9:35 PM 77.0 °F - 73.4 °F 89% 30.07 in - Calm Calm - N/A   Unknown
9:55 PM 77.0 °F - 73.4 °F 89% 30.07 in - Calm Calm - N/A   Unknown
10:15 PM 77.0 °F - 73.4 °F 89% 30.09 in - Calm Calm - N/A   Unknown
10:35 PM 77.0 °F - 73.4 °F 89% 30.09 in - Calm Calm - N/A   Unknown
10:55 PM 77.0 °F - 73.4 °F 89% 30.11 in - Calm Calm - N/A   Unknown
11:15 PM 77.0 °F - 73.4 °F 89% 30.11 in - Calm Calm - N/A   Unknown
11:35 PM 75.2 °F - 73.4 °F 94% 30.11 in - Calm Calm - N/A   Unknown
11:55 PM 75.2 °F - 73.4 °F 94% 30.11 in - Calm Calm - N/A   Unknown